Lemur-2-Mano

operational
NORAD ID: 57390 Int'l Des: 2023-100 Owner: SPIRE Country: US Constellation: spire
LEOCIRCULARRETROGRADE

关于 Lemur-2-Mano

正在加载描述...

实时位置

正在加载3D地球...

即将过境

高度历史

Altitude vs Time

uPlot chart will show altitude changes over time

两行轨道根数

1 57390U 23100E 25341.23630323 .00083233 00000-0 18680-2 0 9991
2 57390 99.4648 329.9323 0004196 327.9966 32.1019 15.43064320132155
Epoch: Dec 7, 2025 • Age: 14 hours

当前状态

高度 438.9 km
速度 7.65 km/s
星下点 27.32°N, 48°W
发射日期 Jul 18, 2023
运行时间 2.3 years
类型 other

技术详情

分类 Payload
质量 5.00 kg
干质量 5.00 kg
总质量 5.00 kg
长度 0.30 m
直径 0.10 m
跨度 0.30 m
形状 Box+2 pan
制造商 SPIREG
平台类型 Cubesat 3U
阶段状态 In Orbit
所有者/国家 SPIRE/US

大型星座

Loading constellations...